Regional Weather Roundup
Issued by NWS Jackson, KY

Home | Current Version | Previous Version | Text Only | Print | Product List | Glossary Off
Versions: 1 2 3 4 5 6 7 8 9 10 11 12 13 14 15 16 17 18 19 20 21 22 23 24 25 26 27

000
ASUS43 KJKL 041210
RWRJKL

EAST KENTUCKY HOURLY WEATHER ROUNDUP
NATIONAL WEATHER SERVICE JACKSON KY
700 AM EST SUN DEC 04 2016

NOTE: "FAIR" INDICATES FEW OR NO CLOUDS BELOW 12,000 FEET WITH
NO SIGNIFICANT WEATHER AND/OR OBSTRUCTIONS TO VISIBILITY.

* THESE REPORTS ARE NOT UNDER NWS QUALITY CONTROL AND MAY NOT
  REPORT WEATHER SUCH AS PRECIPITATION AND FOG.

KYZ079-080-083-085-087-088-110-112-115-119-120-041300
...EASTERN KENTUCKY...

CITY           SKY/WX    TMP DP  RH WIND       PRES   REMARKS
JACKSON        CLOUDY    36  29  75 VRB3      30.17S
6HR MIN TEMP:  36; 6HR MAX TEMP:  37;

LONDON         LGT RAIN  37  33  85 CALM      30.16F
6HR MIN TEMP:  37; 6HR MAX TEMP:  39; 6HR PCP:  0.03;

SOMERSET*      DRIZZLE   36  36 100 SE6       30.16F WCI  31
MONTICELLO*    LGT RAIN  39  37  92 SE3       30.16F
6HR MIN TEMP:  38; 6HR MAX TEMP:  40; 6HR PCP:  0.10;

WILLIAMSBURG*  CLOUDY    37  37 100 SE5       30.16F WCI  34
MIDDLESBORO*   LGT RAIN  38  37  97 CALM      30.20S
6HR MIN TEMP:  38; 6HR MAX TEMP:  40; 6HR PCP:  0.16;

HARLAN APT*    CLOUDY    36  34  93 NE3       30.17F
PIKE CO APT*   CLOUDY    35  30  83 N3        30.18S
MOREHEAD APT*  CLOUDY    37  28  70 VRB3      30.22R
ASHLAND*       CLOUDY    37  28  70 SE3       30.22S
$$

KYZ035-036-041-042-044-050-067-078-099-041300
...CENTRAL KENTUCKY...

CITY           SKY/WX    TMP DP  RH WIND       PRES   REMARKS
MT STERLING*   CLOUDY    36  30  80 SE6       30.20S WCI  31
FLEMING/MASON* CLOUDY    35  30  83 CALM      30.22S
DANVILLE*      DRIZZLE   36  34  93 E3        30.16F
LEXINGTON      CLOUDY    39  29  67 E6        30.18S WCI  35
6HR MIN TEMP:  38; 6HR MAX TEMP:  39;

FRANKFORT      CLOUDY    39  30  70 E5        30.17S
6HR MIN TEMP:  38; 6HR MAX TEMP:  39;

LOUISVILLE     DRIZZLE   41  30  65 E8        30.16F
6HR MIN TEMP:  41; 6HR MAX TEMP:  41; 6HR PCP: TRACE;

LEBANON*       PTSUNNY   37  36  93 CALM      30.16F
GLASGOW*       LGT RAIN  39  39 100 NE3       30.13F
BOWLING GREEN  CLOUDY    40  38  93 E3        30.15S FOG
6HR MIN TEMP:  40; 6HR MAX TEMP:  41; 6HR PCP:  0.04;

$$

KYZ091>093-OHZ055-061-077-WVZ005-015-034-035-042-041300
...SOUTHERN OHIO/WEST VIRGINIA...

CITY           SKY/WX    TMP DP  RH WIND       PRES   REMARKS
COVINGTON      CLOUDY    37  30  75 E6        30.20S WCI  32
COLUMBUS       CLOUDY    35  30  82 E5        30.24S WCI  31
DAYTON         CLOUDY    34  27  75 SE7       30.21F WCI  28
WILMINGTON     MOCLDY    33  29  85 E6        30.20F WCI  28
HUNTINGTON     CLOUDY    36  29  75 E3        30.22F
CHARLESTON     CLOUDY    33  30  88 NE5       30.22S WCI  29
PINEVILLE*     CLOUDY    35  28  77 MISG      30.24R
BECKLEY        CLOUDY    32  25  75 SE7       30.16F WCI  26
BLUEFIELD      CLOUDY    30  24  78 VRB3      30.16S
LOGAN CO APT*  CLOUDY    36  28  75 CALM      30.18R
$$

VAZ002-007-008-TNZ017-027-036-066-071-041300
...SOUTHWEST VIRGINIA/EAST TENNESSEE...

CITY           SKY/WX    TMP DP  RH WIND       PRES   REMARKS
WISE*          LGT RAIN  39  36  87 S6        30.16F WCI  35
ABINGDON*      LGT RAIN  37  35  90 E5        30.19F WCI  33
BRISTOL        LGT RAIN  37  35  92 NE3       30.20F FOG
MORRISTOWN*    CLOUDY    37  37 100 E5        30.17S FOG     WCI  34
SEVIERVILLE*   CLOUDY    37  36  93 CALM      30.18S
KNOXVILLE      RAIN      39  37  92 N7        30.17F FOG     WCI  34
OAK RIDGE      RAIN      40  38  93 NE3       30.19F FOG
CROSSVILLE     LGT RAIN  38  36  92 SE8       30.10F WCI  32
NASHVILLE      CLOUDY    42  40  92 N6        30.13R
$$

...KEY TO REMARKS...
VSB - VISIBILITY IN MILES
WCI - WIND CHILL INDEX
HX  - HEAT INDEX

$$




USA.gov is the U.S. government's official web portal to all federal, state and local government web resources and services.